This demonstration page uses our WeatherBlox Daily Observations layout. Learn more.

Left ArrowRight Arrow

38.83388, -104.82136

Hourly Observations for August 30, 2022

Temp ( °F °C ) Dew Point ( °F °C ) Humidity (%) Winds ( mph kmh ) Pressure ( in mb ) Visibility ( mi km ) Precip ( " mm )
12:56 am 00:56 Cloudy 66 19 46 7.7 48 48 SSE 6 9 29.35 994 10 16 0.00 0.00
1:56 am 01:56 Clear 65 18.1 47 8.1 52 52 S 8 13 29.31 993 10 16 0.00 0.00
2:56 am 02:56 Clear 63 17.1 47 8.2 56 56 Calm 29.27 991 10 16 0.00 0.00
3:56 am 03:56 Clear 63 17.2 47 8.3 56 56 N 6 9 29.29 992 10 16 0.00 0.00
4:56 am 04:56 Clear 62 16.8 47 8.2 57 57 Calm 29.27 991 10 16 0.00 0.00
5:56 am 05:56 Clear 62 16.7 47 8.4 58 58 Calm 29.27 991 10 16 0.00 0.00
6:56 am 06:56 Sunny 61 16.2 47 8.4 60 60 Calm 29.32 993 10 16 0.00 0.00
7:56 am 07:56 Sunny 65 18.3 50 10.1 59 59 Calm 29.42 996 10 16 0.00 0.00
8:56 am 08:56 Sunny 68 20.2 53 11.4 57 57 Calm 29.54 1000 10 16 0.00 0.00
9:56 am 09:56 Sunny 69 20.7 51 10.5 52 52 NE 6 9 29.55 1001 10 16 0.00 0.00
10:56 am 10:56 Sunny 72 22.2 51 10.3 47 47 ENE 3 6 29.56 1001 10 16 0.00 0.00
11:56 am 11:56 Sunny 77 24.9 51 10.7 41 41 SE 13 20 29.59 1002 10 16 0.00 0.00
12:56 pm 12:56 Sunny 81 27.1 51 10.3 35 35 SE 14 22 29.65 1004 10 16 0.00 0.00
1:25 pm 13:25 Sunny 79 26 50 10 37 37 ESE 13 20 29.64 1004 10 16 0.00 0.00
1:56 pm 13:56 Sunny 80 26.7 49 9.5 34 34 SE 16 26 29.63 1004 10 16 0.00 0.00
2:56 pm 14:56 Sunny 80 26.4 48 8.8 33 33 SE 16 26 29.59 1002 10 16 0.00 0.00
3:56 pm 15:56 Sunny 79 26.2 45 7.2 30 30 SSE 12 19 29.57 1001 10 16 0.00 0.00
4:56 pm 16:56 Sunny 78 25.5 43 6.1 29 29 SE 13 20 29.47 998 10 16 0.00 0.00
5:56 pm 17:56 Sunny 76 24.2 42 5.5 30 30 SE 10 17 29.30 992 10 16 0.00 0.00
6:56 pm 18:56 Sunny 73 23 47 8.3 39 39 S 10 17 29.28 992 10 16 0.00 0.00
7:56 pm 19:56 Clear 72 22.3 48 9.1 43 43 S 12 19 29.28 992 10 16 0.00 0.00
8:56 pm 20:56 Clear 71 21.4 50 9.9 48 48 S 13 20 29.28 992 10 16 0.00 0.00
9:56 pm 21:56 Clear 70 21.1 49 9.3 47 47 S 16 26 29.28 992 10 16 0.00 0.00
10:56 pm 22:56 Mostly Clear 70 21.2 47 8.5 44 44 S 12 19 29.28 992 10 16 0.00 0.00
11:56 pm 23:56 Clear 70 20.9 47 8.5 45 45 S 10 17 29.26 991 10 16 0.00 0.00

Powered by AerisWeather